Torna al catalogo

BREEZE-M DEB

LostHEO
NORAD 41322·DEBRIS·🇷🇺 Russia

Lanciato May 17, 2012 da Baikonur Cosmodrome

Loading…

Prossimi Passaggi (prossime 24 ore)

TLE

ObsoletoSource: Space-Track

Epoca: Dec 1, 2022, 08:54 UTC

1 41322U 12026J   22335.37118200 -.00000077  00000-0  00000+0 0  9994
2 41322  10.5630 247.0726 4029496 206.7362 125.3036  1.77256278 44718

Traccia BREEZE-M DEB in tempo reale con AllMySat

Download on the App Store